Regional Weather Roundup
Issued by NWS

Home | Current Version | Previous Version | Graphics & Text | Print | Product List | Glossary On
Versions: 1 2 3 4 5 6 7 8 9 10 11 12 13 14 15 16 17 18 19 20 21 22 23 24 25 26 27 28 29 30 31 32 33 34 35 36 37 38 39 40 41 42 43 44 45 46 47 48 49 50
000
ASUS43 KDMX 240706
RWRIA

WEATHER ROUNDUP FOR IOWA
NATIONAL WEATHER SERVICE DES MOINES IA
200 AM CDT SAT JUN 24 2017

NOTE: "FAIR" INDICATES FEW OR NO CLOUDS BELOW 12,000 FEET WITH NO
SIGNIFICANT WEATHER AND/OR OBSTRUCTIONS TO VISIBILITY.

* - THESE STATIONS ARE NOT NWS STATIONS...THUS NOT UNDER NWS
QUALITY CONTROL.  THEY ALSO DO NOT REPORT WEATHER SUCH
AS PRECIPITATION OR FOG.

IAZ001>003-012>014-020>022-031>034-043>046-240800-
   NORTHWEST IOWA

CITY           SKY/WX    TMP DP  RH WIND       PRES   REMARKS
CARROLL *      CLEAR     52  45  76 W8        30.08S
CHEROKEE *     CLEAR     52  42  68 CALM      30.10S
DENISON *      PTCLDY    50  45  81 CALM      30.12S
LE MARS *      CLEAR     52  43  71 CALM      30.12R
ORANGE CITY *  CLEAR     50  43  76 NW6       30.11R
SHELDON *      CLEAR     52  43  71 NW6       30.09R
SIOUX CITY     CLEAR     51  41  68 CALM      30.12R
SPENCER        CLEAR     51  45  79 W10       30.08R
STORM LAKE *   CLEAR     52  43  71 W10       30.10R
$$

IAZ055>058-069>071-079>083-090>094-240800-
   SOUTHWEST IOWA

CITY           SKY/WX    TMP DP  RH WIND       PRES   REMARKS
ATLANTIC *     CLEAR     57  50  77 NW8       30.10S
AUDUBON *      CLEAR     54  46  76 CALM      30.11S
CLARINDA *       N/A     61  50  67 NW12      30.12R
COUNCIL BLFS * CLEAR     57  46  67 NW7       30.13R
CRESTON *      MOCLDY    55  52  88 NW8       30.10F
HARLAN  *      CLEAR     54  48  82 W7        30.14S
LAMONI         CLEAR     58  52  80 NW7       30.08R
RED OAK *      PTCLDY    59  52  77 MISG      30.11R
SHENANDOAH *   CLEAR     59  52  77 NW6       30.12R
$$

IAZ047>049-059>061-072>074-084-240800-
   CENTRAL IOWA

CITY           SKY/WX    TMP DP  RH WIND       PRES   REMARKS
AMES           PTCLDY    59  51  75 W7        30.05R
ANKENY *       CLEAR     57  52  82 W8        30.06S
BOONE *        MOCLDY    57  50  77 W8        30.05S
CHARITON *     CLEAR     57  52  82 NW7       30.05F
DES MOINES     CLEAR     59  51  75 W5        30.05S
GRINNELL*      PTCLDY    56  51  82 W6        30.04S
KNOXVILLE *    CLEAR     57  52  82 NW6       30.03F
MARSHALLTOWN   CLEAR     55  52  89 W7        30.02S
NEWTON *       CLEAR     59  50  72 NW8       30.04S
PELLA *        CLEAR     58  51  78 NW5       30.05S
PERRY *          N/A     54  51  92 W7        30.07S
$$

IAZ004>006-015-016-023>025-035-036-240800-
   NORTH CENTRAL IOWA

CITY           SKY/WX    TMP DP  RH WIND       PRES   REMARKS
ALGONA *       CLEAR     52  50  93 W9        30.05S
CLARION *        N/A     54  52  94 W8        30.04S
ESTHERVILLE    PTCLDY    52  47  83 NW9       30.05S
FORT DODGE *   CLEAR     55  46  71 W3        30.07R
MASON CITY     PTCLDY    54  49  83 W10       30.03S
FOREST CITY *    N/A     52  43  71 W5        30.02S
WEBSTER CITY * CLEAR     54  50  87 W9        30.03S
IOWA FALLS *     N/A     55  51  86 W8        30.05R
$$

IAZ007>011-017>019-026>030-037>042-050>054-066-240800-
   NORTHEAST IOWA

CITY           SKY/WX    TMP DP  RH WIND       PRES   REMARKS
CEDAR RAPIDS   PTCLDY    60  54  80 NW13      29.99R
CHARLES CITY * PTCLDY    57  55  94 W9        30.00S
CLINTON *      CLEAR     59  56  89 W9        29.95S
DECORAH *      CLOUDY    59  52  77 VRB7      29.96R
DUBUQUE        MOCLDY    60  53  77 W13       29.95S
MONTICELLO *   PTCLDY    61  54  77 NW9       29.96S
OELWEIN *      CLEAR     57  54  88 W9        29.99S
WATERLOO       PTCLDY    59  51  75 NW7       29.99S
$$

IAZ064-065-067-068-078-240800-
   EAST CENTRAL IOWA

CITY           SKY/WX    TMP DP  RH WIND       PRES   REMARKS
DAVENPORT      CLEAR     59  56  89 W8        29.96S
IOWA CITY      PTCLDY    64  53  67 NW12      30.00S
MT. PLEASANT * CLEAR     62  51  66 NW12      30.00S
MUSCATINE *    PTCLDY    63  54  72 W9        29.99R
QUAD CITIES    PTCLDY    65  55  70 W10       29.95F
$$

IAZ062-063-075>077-085>089-095>099-240800-
   SOUTHEAST IOWA

CITY           SKY/WX    TMP DP  RH WIND       PRES   REMARKS
BURLINGTON     CLEAR     64  54  69 NW10      29.98R
FAIRFIELD *    PTCLDY    61  52  72 NW8       30.01S
FORT MADISON * PTCLDY    63  54  72 NW7       30.00S
KEOKUK *       CLEAR     61  55  82 MISG      29.99F
OSKALOOSA *      N/A     59  51  75 NW8       30.03S
CENTERVILLE *    N/A     57  54  88 CALM      30.07S
OTTUMWA        PTCLDY    60  52  74 NW12      30.02S
WASHINGTON *   PTCLDY    61  54  77 NW12G18   30.01S
$$

ABBREVIATIONS USED IN REMARKS
   TC - TEMPERATURES IN CELSIUS
  WCI - WIND CHILL INDEX
   HX - HEAT INDEX
  VSB - VISIBILITY
$$





USA.gov is the U.S. government's official web portal to all federal, state and local government web resources and services.